Погода Шарья

Погода Шарья : погода сейчас, прогноз погоды и архив. Всё, что Вы хотите узнать о погоде Шарья!

Хотите узнать прогноз погоды Шарья? Тогда Вам сюда: Погода Шарья

Поиск расширенной информации на нашем сайте:

Другие новости

Новости СМИ2

Главная страница сайта

Новости сайта

03.07.2017

Напоминаем, что на нашем специализированном сайте Метеоцентр.Азия вы можете получить высокодетализированные автоматические прогнозы погоды по пунктам России, СНГ и мира в авиационном формате (включающие направление и скорость ветра, видимость, явления погоды, количество и форму облачности, нижнюю и верхнюю границу облачности).

Рекомендуем: Чемпионат техника выполнения упражнений по бодибилдингу.

Погода Шарья - сегодня

Время (UTC), дата Ветер
(°,м/с) 
Видим.   Явления Облачность Т
(°С)
Тd
(°С)
f(%) Тe
(°С)
Pmin
(гПа)
dP
(гПа)
Po
(мм)
O2
(г/м3)
Тmin Tmax R s Состояние
почвы
15 09.12.17 150 (ЮВ) 10 км  слаб. снег  10/10 600 м 
[Sc]
-6.8 -8.2 90 -8  1018.1  0.2  751  311    -6.8  0.0     
18 09.12.17 150 (ЮВ) 4000 м  слаб. снег  10/10 600 м 
[Sc]
-6.6 -7.8 91 -8  1018.6  0.6  752  311           
21 09.12.17 150 (ЮВ) 10 км  слаб. снег  10/10 600 м 
[Sc]
-6.4 -7.7 90 -8  1019.1  0.4  752  311           
00 10.12.17 150 (ЮВ) 10 км  слаб. снег  10/10 600 м 
[Sc]
-6.3 -7.6 90 -8  1019.3  0.3  752  311           
03 10.12.17 150 (ЮВ) 4000 м  слаб. снег  10/10 600 м 
[Sc]
-6.1 -7.3 91 -8  1020  0.6  753  311  -6.8    0.0  12  равномерный
сухой снег
100% 
06 10.12.17 150 (ЮВ) 4000 м  слаб. снег  10/10 600 м 
[Sc]
-5.8 -7.1 90 -7  1020.5  0.5  753  311  -6.8         
09 10.12.17 140 (ЮВ) 4000 м  слаб. снег  10/8 600 м средняя 
[Sc|As op]
-5.1 -6.7 89 -7  1020.6  0.2  753  310           
12 10.12.17 140 (ЮВ) 4000 м  слаб. снег  10/3 600 м средняя 
[Sc|As trans]
-4.8 -6 91 -6  1020.3  -0.3  753  310           
15 10.12.17 140 (ЮВ) 10 км  {снег}  10/10 600 м 
[Sc]
-4.8 -6 91 -6  1020.8  0.5  754  310    -4.7  0.0     
18 10.12.17 150 (ЮВ) 10 км  {снег}  10/10 600 м 
[Sc]
-4.7 -6.1 90 -7  1021  0.2  754  310           
21 10.12.17 140 (ЮВ) 10 км    10/10 600 м 
[Sc]
-5 -6 93 -6  1020.9  0.1  754  310           
00 11.12.17 140 (ЮВ) 10 км    10/10 600 м 
[Sc]
-5.4 -6.4 93 -8  1021  754  310           
03 11.12.17 130 (ЮВ) 10 км    10/10 600 м 
[Sc]
-6.4 -7.4 93 -10  1020.2  -0.7  753  312  -6.4      12  равномерный
сухой снег
100% 
06 11.12.17 140 (ЮВ) 4000 м  дымка  10/10 600 м 
[Sc]
-7 -7.7 95 -10  1020.8  0.5  753  312  -7         
09 11.12.17 130 (ЮВ) 4000 м  в посл. час дождь{снег}  10/10 300 м 
[Sc]
-6 -6.9 93 -7  1020.7  0.1  753  311           
12 11.12.17 140 (ЮВ) 4000 м  дымка{снег}  10/10 600 м 
[Sc]
-4.9 -6.1 91 -7  1019.7  -0.9  753  310           
15 11.12.17 130 (ЮВ) 10 км    10/10 600 м 
[Sc]
-4.6 -5.7 92 -7  1019.5  -0.2  753  309    -4.6  0.7     
18 11.12.17 130 (ЮВ) 10 км  слаб. переохл. морось (гололёд) [диам. гололёда 0 мм]  10/10 300 м 
[St]
-4.9 -5.7 94 -7  1019.1  -0.4  752  309           
21 11.12.17 120 (ЮВ) 2000 м  снег{морось} [диам. гололёда 0 мм]  10/10 300 м 
[Frnb|Ns]
-4.7 -5.8 92 -6  1018.9  0.1  752  309           
00 12.12.17 140 (ЮВ) 10 км  {снег, морось}  10/10 300 м 
[St]
-4.2 -5.3 92 -6  1018.5  -0.4  752  308           
03 12.12.17 130 (ЮВ) 10 км  слаб. переохл. морось (гололёд) [диам. гололёда 0 мм]  10/10 300 м 
[St]
-3.7 -4.5 94 -6  1019.1  0.6  752  308  -4.9    0.8  12  равномерный
мокрый или
старый снег
100% 
06 12.12.17 120 (ЮВ) 2000 м  снег{морось}  10/4 300 м средняя 
[St|As trans]
-3.6 -4.6 93 -5  1020.2  1.1  753  308  -4.9         
09 12.12.17 130 (ЮВ) 4000 м  слаб. снег  10/0 средняя 
[As op]
-2.5 -3.8 91 -5  1020.7  0.6  754  307           
12 12.12.17 120 (ЮВ) 4000 м  дымка{снег}  10/10 600 м 
[Sc]
-2.3 -3.3 93 -4  1021.6  0.9  754  307           
15 12.12.17 130 (ЮВ) 10 км    10/10 300 м 
[Sc]
-2.1 -3.1 93 -4  1022.4  0.8  755  307    -2.1  0.6     
Время (UTC), дата Ветер
(°,м/с) 
Видим.   Явления Облачность Т
(°С)
Тd
(°С)
f(%) Тe
(°С)
Pmin
(гПа)
dP
(гПа)
Po
(мм)
O2
(г/м3)
Тmin Tmax R s Состояние
почвы

Для получения пояснительной информации подведите курсор к названию столбца.

ПОГОДА Шарья - архив

Всё, что Вы хотите узнать о погоде Шарья - удобно и подробно!

Выберите нужную дату (начиная с 1 января 2015* года) и нажмите кнопку "Найти".
Будут отображены архивные сводки погоды по пункту Шарья, начиная с указанной даты.


Отображать данные в формате CSV (для использования в таблицах Excel)


Внимание! Наш архив погоды предназначен исключительно для личного некоммерческого использования в познавательных целях. Если Вам необходимы официальные справки о состоянии погоды (для производственных, юридических, коммерческих и т.п. целей), обращайтесь в органы Росгидромета.

*Примечание: данная дата относится к архиву по метеостанциям СССР (Россия, СНГ, Балтия).
Архив по метеостанциям Зарубежной Европы и Азии (кроме Китая) хранится 10 дней, по другим регионам земного шара (Китай, Африка, Америка, Австралия, Океания) - 1 день.

Шарья - район местоположения метеостанции


Название, широта, долгота, высота метеостанции:
Шарья 58.4°ш. 45.5°д. 125 м над ур. моря [Российская Федерация]

Дополнительная информация

В oтличие oт бoльшинства пoгoдных сайтoв мы публикуем пoдрoбную метеoинфoрмацию в детальнoм прoфессиoнальнoм фoрмате.

Характеристики температуры и влажнoсти вoздуха измеряются на высoте 2 м в тени вдали oт зданий и деревьев.
Скoрoсть ветра измеряется на высoте 10 м (на урoвне рoста челoвека скoрoсть ветра ниже в 1.5-2 раза). Если метеoстанция нахoдится в гoрoде или в лесу, тo скoрoсть ветра занижена на 2-4 м/с пo сравнению с oткрытым местoм. Скoрoсть ветра над акватoриями крупных рек и oзёр, а также на вершинах хoлмoв на 2-5 м/с выше, чем в oбычных услoвиях.
Атмoсфернoе давление в разных тoчках местнoсти мoжет значительнo oтличаться oт давления на метеoстанции, в зависимoсти oт услoвий рельефа (при пoдъёме на 10 м давление пoнижается примернo на 1 мм рт.ст.).